Weather History for Visalia, CA

Change the Weather History Date:

Tuesday, April 1, 2014

  Actual Average Record
Temperature  
Mean Temperature 50 °F -  
Max Temperature 60 °F 70 °F 87 °F (1933)
Min Temperature 41 °F 46 °F 33 °F (1999)
Degree Days  
Heating Degree Days 14    
Moisture  
Dew Point 39 °F    
Average Humidity 65    
Maximum Humidity 82    
Minimum Humidity 45    
Precipitation  
Precipitation 0.07 in - - ()
Sea Level Pressure  
Sea Level Pressure 29.95 in    
Wind  
Wind Speed 4 mph (South)    
Max Wind Speed 17 mph    
Max Gust Speed 21 mph    
Visibility 9 miles    
Events      
Averages and records for this station are not official NWS values.
T = Trace of Precipitation, MM = Missing Value Source: NWS Daily Summary

Daily Weather History Graph

Daily Weather History Graph

Search for Another Location

Airport:

Trip Planner

Search our weather history database for the weather conditions in past years. The results will help you decide how hot, cold, wet, or windy it might be!

Date:

Astronomy

Apr. 01, 2014 Rise Set
Actual Time 6:43 AM PDT 7:19 PM PDT
Civil Twilight 6:17 AM PDT 7:45 PM PDT
Nautical Twilight 5:47 AM PDT 8:16 PM PDT
Astronomical Twilight 5:15 AM PDT 8:47 PM PDT
Moon 7:53 AM PDT (4/1) 9:43 PM PDT (4/1)
Length of Visible Light 13h 28m
Length of Day
12h 36m
Waxing Crescent, 5% of the Moon is Illuminated
Apr 1
Waxing Crescent
Apr 7
First Quarter
Apr 15
Full
Apr 22
Last Quarter
Apr 28
New

Hourly Weather History & Observations

Time (PDT) Temp. Windchill Dew Point Humidity Pressure Visibility Wind Dir Wind Speed Gust Speed Precip Events Conditions
12:15 AM 48.2 °F - 42.8 °F 82% 29.94 in 10.0 mi NNW 6.9 mph - N/A   Scattered Clouds
12:35 AM 48.2 °F - 42.8 °F 82% 29.95 in 10.0 mi North 3.5 mph - N/A   Partly Cloudy
12:55 AM 48.2 °F - 41.0 °F 76% 29.95 in 10.0 mi NNE 3.5 mph - N/A   Mostly Cloudy
1:15 AM 48.2 °F - 41.0 °F 76% 29.96 in 10.0 mi NNE 5.8 mph - N/A   Mostly Cloudy
1:35 AM 48.2 °F - 41.0 °F 76% 29.97 in 10.0 mi Calm Calm - N/A   Overcast
1:55 AM 48.2 °F - 39.2 °F 71% 29.97 in 10.0 mi Calm Calm - N/A   Overcast
2:15 AM 48.2 °F - 41.0 °F 76% 29.97 in 10.0 mi Calm Calm - N/A   Scattered Clouds
2:35 AM 46.4 °F - 39.2 °F 76% 29.97 in 10.0 mi Calm Calm - N/A   Scattered Clouds
2:55 AM 46.4 °F - 39.2 °F 76% 29.97 in 10.0 mi Calm Calm - N/A   Mostly Cloudy
3:15 AM 46.4 °F - 39.2 °F 76% 29.97 in 10.0 mi Calm Calm - N/A   Mostly Cloudy
3:35 AM 46.4 °F - 39.2 °F 76% 29.97 in 10.0 mi Calm Calm - N/A   Clear
3:55 AM 44.6 °F - 37.4 °F 76% 29.96 in 10.0 mi Calm Calm - N/A   Clear
4:15 AM 44.6 °F - 37.4 °F 76% 29.96 in 10.0 mi Calm Calm - N/A   Clear
4:35 AM 44.6 °F - 37.4 °F 76% 29.96 in 10.0 mi Calm Calm - N/A   Clear
4:55 AM 44.6 °F - 37.4 °F 76% 29.96 in 7.0 mi Calm Calm - N/A   Clear
5:15 AM 42.8 °F - 37.4 °F 81% 29.96 in 1.0 mi Calm Calm - N/A   Clear
5:35 AM 42.8 °F - 37.4 °F 81% 29.96 in 0.8 mi Calm Calm - N/A   Mostly Cloudy
5:55 AM 42.8 °F - 37.4 °F 81% 29.96 in 1.8 mi Calm Calm - N/A   Scattered Clouds
6:15 AM 42.8 °F - 37.4 °F 81% 29.96 in 4.0 mi Calm Calm - N/A   Clear
6:35 AM 42.8 °F - 35.6 °F 76% 29.96 in 2.0 mi Calm Calm - N/A   Clear
6:55 AM 41.0 °F - 35.6 °F 81% 29.97 in 0.2 mi Calm Calm - N/A   Overcast
7:15 AM 41.0 °F - 35.6 °F 81% 29.98 in 0.8 mi Calm Calm - N/A   Mostly Cloudy
7:35 AM 42.8 °F - 37.4 °F 81% 29.98 in 9.0 mi Calm Calm - N/A   Clear
7:55 AM 44.6 °F 42.2 °F 39.2 °F 81% 29.98 in 10.0 mi ESE 4.6 mph - N/A   Clear
8:15 AM 44.6 °F 42.2 °F 39.2 °F 81% 29.99 in 10.0 mi East 4.6 mph - N/A   Clear
8:35 AM 46.4 °F 44.3 °F 41.0 °F 81% 30.00 in 10.0 mi East 4.6 mph - N/A   Clear
8:55 AM 48.2 °F - 42.8 °F 82% 30.00 in 10.0 mi ESE 4.6 mph - N/A   Clear
9:15 AM 50.0 °F - 44.6 °F 82% 30.00 in 10.0 mi ESE 4.6 mph - N/A   Clear
9:35 AM 51.8 °F - 42.8 °F 71% 30.01 in 10.0 mi East 3.5 mph - N/A   Clear
9:55 AM 51.8 °F - 42.8 °F 71% 30.01 in 10.0 mi SE 5.8 mph - N/A   Partly Cloudy
10:15 AM 51.8 °F - 42.8 °F 71% 30.02 in 10.0 mi ESE 3.5 mph - N/A   Partly Cloudy
10:35 AM 51.8 °F - 42.8 °F 71% 30.03 in 10.0 mi SE 4.6 mph - N/A   Partly Cloudy
10:55 AM 53.6 °F - 42.8 °F 67% 30.03 in 10.0 mi SSE 5.8 mph - N/A   Partly Cloudy
11:15 AM 53.6 °F - 39.2 °F 58% 30.02 in 10.0 mi South 4.6 mph - 0.06 in   Scattered Clouds
11:35 AM 55.4 °F - 41.0 °F 58% 30.02 in 10.0 mi South 4.6 mph - 0.06 in   Scattered Clouds
11:55 AM 55.4 °F - 41.0 °F 58% 30.01 in 10.0 mi SE 6.9 mph - 0.06 in   Scattered Clouds
12:15 PM 55.4 °F - 39.2 °F 54% 30.01 in 10.0 mi SW 4.6 mph - N/A   Partly Cloudy
12:35 PM 55.4 °F - 39.2 °F 54% 30.00 in 10.0 mi SSW 8.1 mph - N/A   Clear
12:55 PM 57.2 °F - 39.2 °F 51% 29.99 in 10.0 mi SW 5.8 mph - N/A   Clear
1:15 PM 57.2 °F - 37.4 °F 48% 29.98 in 10.0 mi SSW 8.1 mph - N/A   Partly Cloudy
1:35 PM 57.2 °F - 37.4 °F 48% 29.97 in 10.0 mi WSW 10.4 mph - N/A   Clear
1:55 PM 59.0 °F - 37.4 °F 45% 29.96 in 10.0 mi South 10.4 mph - N/A   Clear
2:15 PM 59.0 °F - 37.4 °F 45% 29.95 in 10.0 mi South 5.8 mph - N/A   Clear
2:35 PM 59.0 °F - 37.4 °F 45% 29.94 in 10.0 mi South 8.1 mph - N/A   Partly Cloudy
2:55 PM 59.0 °F - 37.4 °F 45% 29.93 in 10.0 mi SSW 4.6 mph - N/A   Partly Cloudy
3:15 PM 60.8 °F - 39.2 °F 45% 29.93 in 10.0 mi South 8.1 mph - N/A   Mostly Cloudy
3:35 PM 60.8 °F - 39.2 °F 45% 29.92 in 10.0 mi South 10.4 mph - N/A   Mostly Cloudy
3:55 PM 60.8 °F - 39.2 °F 45% 29.91 in 10.0 mi SSW 6.9 mph - N/A   Clear
4:15 PM 60.8 °F - 39.2 °F 45% 29.91 in 10.0 mi SSW 8.1 mph - N/A   Partly Cloudy
4:35 PM 60.8 °F - 39.2 °F 45% 29.90 in 10.0 mi South 8.1 mph - N/A   Clear
4:55 PM 59.0 °F - 37.4 °F 45% 29.90 in 10.0 mi SW 17.3 mph 20.7 mph N/A   Partly Cloudy
5:15 PM 57.2 °F - 37.4 °F 48% 29.90 in 10.0 mi SW 15.0 mph - N/A   Mostly Cloudy
5:35 PM 55.4 °F - 39.2 °F 54% 29.90 in 10.0 mi SW 11.5 mph - N/A   Overcast
5:55 PM 57.2 °F - 39.2 °F 51% 29.90 in 10.0 mi SW 10.4 mph - N/A   Scattered Clouds
6:15 PM 57.2 °F - 39.2 °F 51% 29.89 in 10.0 mi SSW 8.1 mph - N/A   Mostly Cloudy
6:35 PM 55.4 °F - 37.4 °F 51% 29.90 in 10.0 mi SW 10.4 mph - N/A   Mostly Cloudy
6:55 PM 55.4 °F - 39.2 °F 54% 29.89 in 10.0 mi SSW 9.2 mph - N/A   Overcast
7:15 PM 55.4 °F - 39.2 °F 54% 29.89 in 10.0 mi South 6.9 mph - N/A   Overcast
7:35 PM 53.6 °F - 41.0 °F 62% 29.89 in 10.0 mi SSE 8.1 mph - N/A   Overcast
7:55 PM 53.6 °F - 41.0 °F 62% 29.89 in 10.0 mi SSE 8.1 mph - N/A   Overcast
8:15 PM 53.6 °F - 41.0 °F 62% 29.89 in 10.0 mi SSE 6.9 mph - N/A   Overcast
8:35 PM 53.6 °F - 41.0 °F 62% 29.90 in 10.0 mi SSE 6.9 mph - N/A   Overcast
8:55 PM 53.6 °F - 41.0 °F 62% 29.90 in 10.0 mi SSE 6.9 mph - N/A   Overcast
9:15 PM 53.6 °F - 41.0 °F 62% 29.91 in 10.0 mi SE 8.1 mph - N/A   Overcast
9:35 PM 53.6 °F - 42.8 °F 67% 29.91 in 10.0 mi SE 8.1 mph - N/A   Overcast
9:55 PM 51.8 °F - 41.0 °F 67% 29.91 in 10.0 mi South 13.8 mph 19.6 mph N/A   Mostly Cloudy
10:15 PM 51.8 °F - 39.2 °F 62% 29.91 in 10.0 mi South 8.1 mph - N/A   Overcast
10:35 PM 50.0 °F - 39.2 °F 66% 29.90 in 10.0 mi South 9.2 mph - 0.01 in   Overcast
10:55 PM 50.0 °F - 39.2 °F 66% 29.91 in 10.0 mi SSE 9.2 mph - 0.01 in   Overcast
11:15 PM 48.2 °F - 39.2 °F 71% 29.90 in 10.0 mi South 11.5 mph - N/A   Overcast
11:35 PM 48.2 °F - 39.2 °F 71% 29.91 in 10.0 mi SSE 8.1 mph - N/A   Overcast
11:55 PM 50.0 °F - 41.0 °F 71% 29.91 in 10.0 mi SE 9.2 mph - N/A   Overcast